Columbus, OH

7:32 AM EST on February 12, 2016 (GMT -0500)
Port Columbus International

Weather History for KCMH - January, 2013

Change the Weather History Date:

Wednesday, January 2, 2013

  Actual Average Record
Temperature  
Mean Temperature 19 °F 30 °F  
Max Temperature 24 °F 37 °F 64 °F (2000)
Min Temperature 13 °F 23 °F -13 °F (1879)
Degree Days  
Heating Degree Days 46 35  
Month to date heating degree days 84 70  
Since 1 July heating degree days 1985 2061  
Cooling Degree Days 0 0  
Month to date cooling degree days 0 0  
Year to date cooling degree days 0 0  
Moisture  
Dew Point 13 °F    
Average Humidity 76    
Maximum Humidity 96    
Minimum Humidity 55    
Precipitation  
Precipitation 0.00 in 0.09 in 0.95 in (1947)
Month to date precipitation 0.04 0.19  
Year to date precipitation 0.04 0.19  
Snow  
Snow 0.00 in 0.20 in 6.40 in (1999)
Month to date snowfall 0.4 0.5  
Since 1 July snowfall 16.1 6.6  
Snow Depth 7.00 in    
Sea Level Pressure  
Sea Level Pressure 30.22 in    
Wind  
Wind Speed 2 mph (SW)    
Max Wind Speed 7 mph    
Max Gust Speed 12 mph    
Visibility 8 miles    
Events      
T = Trace of Precipitation, MM = Missing Value Source: NWS Daily Summary

Daily Weather History Graph

Daily Weather History Graph

Search for Another Location

Airport or City:

Trip Planner

Search our weather history database for the weather conditions in past years. The results will help you decide how hot, cold, wet, or windy it might be!

Date:

Astronomy

Jan. 02, 2013 Rise Set
Actual Time 7:53 AM EST 5:18 PM EST
Civil Twilight 7:23 AM EST 5:48 PM EST
Nautical Twilight 6:49 AM EST 6:22 PM EST
Astronomical Twilight 6:16 AM EST 6:55 PM EST
Moon 10:49 PM EST (1/2) 10:34 AM EST (1/2)
Length of Visible Light 10h 25m
Length of Day
9h 24m
Waning Gibbous, 75% of the Moon is Illuminated
Jan 2
Waning Gibbous
Jan 4
Last Quarter
Jan 11
New
Jan 18
First Quarter
Jan 26
Full

Hourly Weather History & Observations

Time (EST) Temp. Windchill Dew Point Humidity Pressure Visibility Wind Dir Wind Speed Gust Speed Precip Events Conditions
12:51 AM 18.0 °F - 14.0 °F 84% 30.15 in 10.0 mi Calm Calm - N/A   Mostly Cloudy
1:51 AM 17.1 °F - 14.0 °F 88% 30.15 in 10.0 mi Calm Calm - N/A   Mostly Cloudy
2:51 AM 15.8 °F - 14.0 °F 93% 30.12 in 6.0 mi Calm Calm - N/A   Mostly Cloudy
3:51 AM 17.1 °F - 14.0 °F 88% 30.17 in 7.0 mi Calm Calm - N/A   Mostly Cloudy
4:51 AM 16.0 °F - 12.9 °F 88% 30.17 in 7.0 mi Calm Calm - N/A   Mostly Cloudy
5:51 AM 15.1 °F - 12.9 °F 91% 30.18 in 6.0 mi Calm Calm - N/A   Mostly Cloudy
6:51 AM 14.0 °F - 12.9 °F 95% 30.20 in 5.0 mi Calm Calm - N/A   Mostly Cloudy
7:51 AM 14.0 °F - 12.0 °F 92% 30.21 in 5.0 mi Calm Calm - N/A   Mostly Cloudy
8:51 AM 14.0 °F - 12.0 °F 92% 30.22 in 5.0 mi Calm Calm - N/A   Mostly Cloudy
9:51 AM 17.1 °F - 14.0 °F 88% 30.25 in 4.0 mi Calm Calm - N/A   Mostly Cloudy
10:51 AM 19.9 °F 14.9 °F 14.0 °F 78% 30.27 in 9.0 mi WSW 3.5 mph - N/A   Mostly Cloudy
11:51 AM 21.9 °F 15.7 °F 12.9 °F 68% 30.26 in 10.0 mi WSW 4.6 mph - N/A   Mostly Cloudy
12:51 PM 24.1 °F 18.2 °F 12.0 °F 60% 30.25 in 10.0 mi WSW 4.6 mph - N/A   Mostly Cloudy
1:51 PM 24.1 °F 18.2 °F 10.0 °F 55% 30.23 in 10.0 mi West 4.6 mph - N/A   Mostly Cloudy
2:51 PM 24.8 °F 17.9 °F 14.0 °F 64% 30.19 in 7.0 mi South 5.8 mph - N/A   Clear
3:51 PM 24.1 °F 16.0 °F 14.0 °F 65% 30.24 in 10.0 mi SSW 6.9 mph - N/A   Mostly Cloudy
4:51 PM 23.0 °F 17.0 °F 12.0 °F 63% 30.24 in 10.0 mi SSW 4.6 mph - N/A   Mostly Cloudy
5:51 PM 21.2 °F 14.9 °F 10.4 °F 63% 30.19 in 10.0 mi SSW 4.6 mph - N/A   Mostly Cloudy
6:51 PM 19.9 °F 14.9 °F 10.9 °F 68% 30.25 in 10.0 mi SW 3.5 mph - N/A   Mostly Cloudy
7:51 PM 19.9 °F - 10.9 °F 68% 30.26 in 10.0 mi Calm Calm - N/A   Mostly Cloudy
8:51 PM 19.9 °F - 10.9 °F 68% 30.27 in 10.0 mi Calm Calm - N/A   Mostly Cloudy
9:51 PM 19.0 °F - 12.0 °F 74% 30.27 in 9.0 mi Calm Calm - N/A   Mostly Cloudy
10:51 PM 18.0 °F - 12.9 °F 81% 30.25 in 8.0 mi Calm Calm - N/A   Mostly Cloudy
11:51 PM 16.0 °F - 12.9 °F 88% 30.25 in 7.0 mi Calm Calm - N/A   Mostly Cloudy